| time (UTC) | temp F | wind direction | speed knots | gust knots | rain 1hr in | rain 24hr in | rain mn in | humidity % | barometer mb |
| 20260507021116 | 59 | 0.0 | 0.0 | 0.00 | 0.00 | 0.00 | 82 | 1004.6 | |
| 20260507020031 | 59 | 180 | 0.0 | 3.5 | 0.00 | 0.00 | 0.00 | 82 | 1004.8 |
| 20260507015016 | 59 | 225 | 0.0 | 3.5 | 0.00 | 0.00 | 0.00 | 82 | 1004.7 |
| 20260507014019 | 59 | 0.0 | 0.0 | 0.00 | 0.00 | 0.00 | 82 | 1004.8 | |
| 20260507013103 | 59 | 113 | 0.0 | 0.9 | 0.00 | 0.00 | 0.00 | 82 | 1005.0 |
| 20260507012026 | 59 | 236 | 0.9 | 7.0 | 0.00 | 0.00 | 0.00 | 82 | 1004.9 |
| 20260507010033 | 59 | 225 | 0.0 | 0.9 | 0.00 | 0.00 | 0.00 | 82 | 1004.9 |
| 20260507005018 | 59 | 0.0 | 0.0 | 0.00 | 0.00 | 0.00 | 82 | 1004.7 | |
| 20260507004021 | 59 | 187 | 1.7 | 6.1 | 0.00 | 0.00 | 0.00 | 82 | 1004.8 |
| 20260507003025 | 60 | 178 | 1.7 | 5.2 | 0.00 | 0.00 | 0.00 | 82 | 1005.0 |
| 20260507002028 | 60 | 211 | 1.7 | 3.5 | 0.00 | 0.00 | 0.00 | 82 | 1004.7 |
| 20260507001031 | 60 | 177 | 0.9 | 4.3 | 0.00 | 0.00 | 0.00 | 82 | 1004.7 |
| 20260507000016 | 60 | 265 | 0.9 | 6.1 | 0.00 | 0.00 | 0.00 | 82 | 1004.7 |
| 20260506235020 | 60 | 225 | 0.0 | 3.5 | 0.00 | 0.00 | 0.00 | 82 | 1004.6 |
| 20260506234023 | 60 | 158 | 0.9 | 5.2 | 0.00 | 0.00 | 0.00 | 81 | 1004.6 |
| 20260506233046 | 60 | 162 | 0.9 | 4.3 | 0.00 | 0.00 | 0.00 | 81 | 1004.6 |
| 20260506232050 | 60 | 135 | 0.9 | 5.2 | 0.00 | 0.00 | 0.00 | 81 | 1004.8 |
| 20260506231015 | 60 | 90 | 0.0 | 2.6 | 0.00 | 0.00 | 0.00 | 81 | 1005.0 |
| 20260506230038 | 60 | 146 | 0.0 | 1.7 | 0.00 | 0.00 | 0.00 | 80 | 1004.9 |
| 20260506225041 | 60 | 0.0 | 0.0 | 0.00 | 0.00 | 0.00 | 80 | 1004.8 | |
| 20260506224019 | 60 | 210 | 0.9 | 7.0 | 0.00 | 0.00 | 0.00 | 79 | 1004.9 |
| 20260506223016 | 60 | 212 | 0.9 | 1.7 | 0.00 | 0.00 | 0.00 | 79 | 1005.0 |
| 20260506222031 | 60 | 0.0 | 2.6 | 0.00 | 0.00 | 0.00 | 78 | 1005.2 | |
| 20260506221016 | 60 | 203 | 0.0 | 2.6 | 0.00 | 0.00 | 0.00 | 78 | 1005.3 |
| 20260506220020 | 61 | 158 | 0.0 | 1.7 | 0.00 | 0.00 | 0.00 | 78 | 1005.2 |
| 20260506215024 | 61 | 0.0 | 1.7 | 0.00 | 0.00 | 0.00 | 78 | 1005.4 | |
| 20260506214027 | 61 | 98 | 1.7 | 7.8 | 0.00 | 0.00 | 0.00 | 78 | 1005.5 |
| 20260506213030 | 61 | 0.0 | 1.7 | 0.00 | 0.00 | 0.00 | 77 | 1005.5 |